Hourly Data Report for July 13, 2021

NORTH CAPE
PRINCE EDWARD ISLAND
Current Station Operator: ECCC - MSC

47°03'29.000" N
63°59'55.000" W
7.60 m
8300516
71987
WNE

Download Data

Hourly Data (July 2021)
Hourly Data Report for July 13, 2021
TIME
LST
Temp Definition
°C
Dew Point Definition
°C
Rel Hum Definition
%
Precip. Amount Definition
mm

Wind Dir Definition
10's deg

Wind Spd Definition
km/h
Visibility Definition
km
Stn Press Definition
kPa
Hmdx Definition


Wind Chill Definition


Weather Definition


00:00 13.5 4.9 56 0.0 18 11   102.54     LegendNANA
01:00 13.5 7.5 67 0.0 22 10   102.54     LegendNANA
02:00 13.8 3.8 51 0.0 20 15   102.54     LegendNANA
03:00 14.2 3.7 49 0.0 19 15   102.56     LegendNANA
04:00 13.6 3.9 52 0.0 21 5   102.58     LegendNANA
05:00 14.1 2.7 46 0.0 21 1   102.62     LegendNANA
06:00 14.2 6.1 58 0.0 20 10   102.65     LegendNANA
07:00 18.5 7.4 48 0.0 18 7   102.69     LegendNANA
08:00 18.0 13.4 75 0.0 14 11   102.72     LegendNANA
09:00 17.9 12.7 72 0.0 14 14   102.71     LegendNANA
10:00 19.3 14.5 74 0.0 14 14   102.71     LegendNANA
11:00 18.9 14.5 76 0.0 13 11   102.72     LegendNANA
12:00 19.0 13.6 71 0.0 13 11   102.68     LegendNANA
13:00 19.0 15.2 79 0.0 11 9   102.66     LegendNANA
14:00 19.3 13.9 71 0.0 11 17   102.62     LegendNANA
15:00 19.7 13.8 69 0.0 12 18   102.59     LegendNANA
16:00 19.7 13.0 65 0.0 13 13   102.58     LegendNANA
17:00 19.4 13.9 71 0.0 13 14   102.55     LegendNANA
18:00 19.2 13.7 70 0.0 14 15   102.51     LegendNANA
19:00 18.6 12.4 67 0.0 15 17   102.48     LegendNANA
20:00 17.7 13.2 75 0.0 14 15   102.48     LegendNANA
21:00 17.6 14.1 80 0.0 15 15   102.47     LegendNANA
22:00 17.7 15.2 86 0.0 16 14   102.46     LegendNANA
23:00 17.5 13.5 77 0.0 17 12   102.45     LegendNANA

Notes on Data Quality.

Legend

  • E = Estimated
  • M = Missing
  • NA = Not Available*
  • [empty] = Indicates an unobserved value
Date modified: